Time,TemperatureF,DewpointF,PressureIn,WindDirection,WindDirectionDegrees,WindSpeedMPH,WindSpeedGustMPH,Humidity,HourlyPrecipIn,Conditions,Clouds,dailyrainin,SolarRadiationWatts/m^2,SoftwareType,DateUTC
2013-08-02 00:01:00,63.7,62.8,29.91,East,93,1.0,3.0,97,-99.99,,,-99.99,0.0,meteohub,2013-08-02 04:01:00,
2013-08-02 00:02:00,63.7,62.8,29.91,East,93,0.0,3.0,97,-99.99,,,-99.99,0.0,meteohub,2013-08-02 04:02:00,
2013-08-02 00:04:00,63.9,63.0,29.91,East,98,0.0,3.0,97,-99.99,,,-99.99,0.0,meteohub,2013-08-02 04:04:00,
2013-08-02 00:06:00,63.9,63.0,29.91,East,98,0.0,3.0,97,-99.99,,,-99.99,0.0,meteohub,2013-08-02 04:06:00,
2013-08-02 00:11:00,64.0,63.1,29.91,East,96,2.0,3.0,97,-99.99,,,-99.99,0.0,meteohub,2013-08-02 04:11:00,
2013-08-02 00:16:00,64.0,63.1,29.91,East,87,0.0,3.0,97,-99.99,,,-99.99,0.0,meteohub,2013-08-02 04:16:00,
2013-08-02 00:18:00,64.2,63.3,29.91,East,87,0.0,3.0,97,-99.99,,,-99.99,0.0,meteohub,2013-08-02 04:18:00,
2013-08-02 00:23:00,64.2,63.3,29.91,East,90,0.0,3.0,97,-99.99,,,-99.99,0.0,meteohub,2013-08-02 04:23:00,
2013-08-02 00:29:00,64.4,63.5,29.90,East,93,0.0,3.0,97,-99.99,,,-99.99,0.0,meteohub,2013-08-02 04:29:00,
2013-08-02 00:34:00,64.6,63.7,29.90,East,97,1.0,3.0,97,-99.99,,,-99.99,0.0,meteohub,2013-08-02 04:34:00,
2013-08-02 00:39:00,64.8,63.9,29.90,SSE,147,0.0,3.0,97,-99.99,,,-99.99,0.0,meteohub,2013-08-02 04:39:00,
2013-08-02 00:44:00,64.8,63.9,29.90,ESE,105,0.0,3.0,97,-99.99,,,-99.99,0.0,meteohub,2013-08-02 04:44:00,
2013-08-02 00:49:00,64.8,63.9,29.90,East,82,0.0,3.0,97,-99.99,,,-99.99,0.0,meteohub,2013-08-02 04:49:00,
2013-08-02 00:54:00,64.8,63.9,29.90,East,87,0.0,5.0,97,-99.99,,,-99.99,0.0,meteohub,2013-08-02 04:54:00,
2013-08-02 00:59:00,64.8,63.9,29.90,East,90,2.0,5.0,97,-99.99,,,-99.99,0.0,meteohub,2013-08-02 04:59:00,
2013-08-02 01:04:00,64.9,64.0,29.89,ENE,72,0.0,5.0,97,-99.99,,,-99.99,0.0,meteohub,2013-08-02 05:04:00,
2013-08-02 01:09:00,64.9,64.0,29.89,East,90,0.0,4.0,97,-99.99,,,-99.99,0.0,meteohub,2013-08-02 05:09:00,
2013-08-02 01:14:00,64.9,64.0,29.89,East,100,3.0,4.0,97,-99.99,,,-99.99,0.0,meteohub,2013-08-02 05:14:00,
2013-08-02 01:19:00,64.9,64.0,29.89,East,96,0.0,4.0,97,-99.99,,,-99.99,0.0,meteohub,2013-08-02 05:19:00,
2013-08-02 01:25:00,64.8,63.9,29.88,East,97,0.0,4.0,97,-99.99,,,-99.99,0.0,meteohub,2013-08-02 05:25:00,
2013-08-02 01:30:00,64.8,63.9,29.88,East,92,1.0,3.0,97,-99.99,,,-99.99,0.0,meteohub,2013-08-02 05:30:00,
2013-08-02 01:35:00,64.8,63.9,29.88,ESE,103,2.0,3.0,97,-99.99,,,-99.99,0.0,meteohub,2013-08-02 05:35:00,
2013-08-02 01:40:00,64.8,63.9,29.88,East,99,0.0,5.0,97,-99.99,,,-99.99,0.0,meteohub,2013-08-02 05:40:00,
2013-08-02 01:45:00,64.8,63.9,29.88,East,88,1.0,5.0,97,-99.99,,,-99.99,0.0,meteohub,2013-08-02 05:45:00,
2013-08-02 01:50:00,64.8,63.9,29.88,East,90,0.0,4.0,97,-99.99,,,-99.99,0.0,meteohub,2013-08-02 05:50:00,
2013-08-02 01:55:00,64.8,63.9,29.88,East,88,1.0,4.0,97,-99.99,,,-99.99,0.0,meteohub,2013-08-02 05:55:00,
2013-08-02 02:00:00,64.8,63.9,29.88,East,97,0.0,3.0,97,-99.99,,,-99.99,0.0,meteohub,2013-08-02 06:00:00,
2013-08-02 02:05:00,64.8,63.9,29.88,East,93,0.0,3.0,97,-99.99,,,-99.99,0.0,meteohub,2013-08-02 06:05:00,
2013-08-02 02:10:00,64.8,63.9,29.87,East,90,0.0,3.0,97,-99.99,,,-99.99,0.0,meteohub,2013-08-02 06:10:00,
2013-08-02 02:15:00,64.8,63.9,29.87,ESE,103,0.0,2.0,97,-99.99,,,-99.99,0.0,meteohub,2013-08-02 06:15:00,
2013-08-02 02:20:00,64.8,63.9,29.87,ESE,102,0.0,2.0,97,-99.99,,,-99.99,0.0,meteohub,2013-08-02 06:20:00,
2013-08-02 02:25:00,64.8,64.2,29.87,ENE,67,0.0,2.0,98,-99.99,,,-99.99,0.0,meteohub,2013-08-02 06:25:00,
2013-08-02 02:30:00,64.8,64.2,29.86,East,101,2.0,3.0,98,-99.99,,,-99.99,0.0,meteohub,2013-08-02 06:30:00,
2013-08-02 02:36:00,64.8,64.2,29.86,East,96,0.0,5.0,98,-99.99,,,-99.99,0.0,meteohub,2013-08-02 06:36:00,
2013-08-02 02:41:00,64.8,64.2,29.86,ENE,76,0.0,5.0,98,-99.99,,,-99.99,0.0,meteohub,2013-08-02 06:41:00,
2013-08-02 02:46:00,64.8,63.9,29.86,East,99,0.0,5.0,97,-99.99,,,-99.99,0.0,meteohub,2013-08-02 06:46:00,
2013-08-02 02:51:00,64.8,63.9,29.86,East,94,1.0,3.0,97,-99.99,,,-99.99,0.0,meteohub,2013-08-02 06:51:00,
2013-08-02 02:57:00,64.8,64.2,29.86,ENE,57,1.0,3.0,98,-99.99,,,-99.99,0.0,meteohub,2013-08-02 06:57:00,
2013-08-02 03:02:00,64.8,64.2,29.86,ESE,109,0.0,2.0,98,-99.99,,,-99.99,0.0,meteohub,2013-08-02 07:02:00,
2013-08-02 03:07:00,64.8,64.2,29.86,East,87,1.0,4.0,98,-99.99,,,-99.99,0.0,meteohub,2013-08-02 07:07:00,
2013-08-02 03:12:00,64.8,64.2,29.86,East,88,1.0,4.0,98,-99.99,,,-99.99,0.0,meteohub,2013-08-02 07:12:00,
2013-08-02 03:17:00,64.8,63.9,29.86,East,84,0.0,4.0,97,-99.99,,,-99.99,0.0,meteohub,2013-08-02 07:17:00,
2013-08-02 03:22:00,64.8,64.2,29.86,East,86,0.0,4.0,98,-99.99,,,-99.99,0.0,meteohub,2013-08-02 07:22:00,
2013-08-02 03:27:00,64.8,64.2,29.85,ESE,105,1.0,4.0,98,-99.99,,,-99.99,0.0,meteohub,2013-08-02 07:27:00,
2013-08-02 03:32:00,64.6,64.0,29.85,ESE,103,0.0,4.0,98,-99.99,,,-99.99,0.0,meteohub,2013-08-02 07:32:00,
2013-08-02 03:37:00,64.6,64.0,29.85,East,90,0.0,3.0,98,-99.99,,,-99.99,0.0,meteohub,2013-08-02 07:37:00,
2013-08-02 03:42:00,64.6,64.0,29.85,ENE,70,0.0,3.0,98,-99.99,,,-99.99,0.0,meteohub,2013-08-02 07:42:00,
2013-08-02 03:47:00,64.6,64.0,29.85,East,88,0.0,3.0,98,-99.99,,,-99.99,0.0,meteohub,2013-08-02 07:47:00,
2013-08-02 03:52:00,64.6,64.0,29.85,East,96,0.0,3.0,98,-99.99,,,-99.99,0.0,meteohub,2013-08-02 07:52:00,
2013-08-02 03:57:00,64.6,64.0,29.85,East,81,0.0,3.0,98,-99.99,,,-99.99,0.0,meteohub,2013-08-02 07:57:00,
2013-08-02 04:02:00,64.6,64.0,29.85,ESE,107,0.0,5.0,98,-99.99,,,-99.99,0.0,meteohub,2013-08-02 08:02:00,
2013-08-02 04:07:00,64.6,64.0,29.84,ESE,107,1.0,5.0,98,-99.99,,,-99.99,0.0,meteohub,2013-08-02 08:07:00,
2013-08-02 04:12:00,64.6,64.0,29.84,East,85,2.0,5.0,98,-99.99,,,-99.99,0.0,meteohub,2013-08-02 08:12:00,
2013-08-02 04:18:00,64.6,64.0,29.84,ENE,78,0.0,3.0,98,-99.99,,,-99.99,0.0,meteohub,2013-08-02 08:18:00,
2013-08-02 04:23:00,64.6,64.0,29.84,ESE,121,0.0,3.0,98,-99.99,,,-99.99,0.0,meteohub,2013-08-02 08:23:00,
2013-08-02 04:28:00,64.6,64.0,29.84,East,79,0.0,5.0,98,-99.99,,,-99.99,0.0,meteohub,2013-08-02 08:28:00,
2013-08-02 04:33:00,64.6,64.0,29.84,East,84,0.0,5.0,98,-99.99,,,-99.99,0.0,meteohub,2013-08-02 08:33:00,
2013-08-02 04:38:00,64.6,64.0,29.84,East,81,0.0,5.0,98,-99.99,,,-99.99,0.0,meteohub,2013-08-02 08:38:00,
2013-08-02 04:43:00,64.6,64.0,29.84,ENE,76,0.0,3.0,98,-99.99,,,-99.99,0.0,meteohub,2013-08-02 08:43:00,
2013-08-02 04:48:00,64.6,64.0,29.85,East,88,0.0,3.0,98,-99.99,,,-99.99,0.0,meteohub,2013-08-02 08:48:00,
2013-08-02 04:53:00,64.4,63.9,29.85,ENE,69,0.0,3.0,98,-99.99,,,-99.99,0.0,meteohub,2013-08-02 08:53:00,
2013-08-02 04:58:00,64.2,63.7,29.85,East,82,1.0,2.0,98,-99.99,,,-99.99,0.0,meteohub,2013-08-02 08:58:00,
2013-08-02 05:03:00,64.0,63.5,29.85,East,96,1.0,3.0,98,-99.99,,,-99.99,0.0,meteohub,2013-08-02 09:03:00,
2013-08-02 05:08:00,63.9,63.3,29.84,NE,54,0.0,7.0,98,-99.99,,,-99.99,0.0,meteohub,2013-08-02 09:08:00,
2013-08-02 05:13:00,63.7,63.1,29.85,NE,43,0.0,7.0,98,-99.99,,,-99.99,0.0,meteohub,2013-08-02 09:13:00,
2013-08-02 05:18:00,63.7,63.3,29.85,ENE,66,0.0,7.0,99,-99.99,,,-99.99,0.0,meteohub,2013-08-02 09:18:00,
2013-08-02 05:23:00,63.7,63.3,29.85,East,81,0.0,4.0,99,-99.99,,,-99.99,0.0,meteohub,2013-08-02 09:23:00,
2013-08-02 05:28:00,63.7,63.3,29.85,East,80,0.0,4.0,99,-99.99,,,-99.99,0.0,meteohub,2013-08-02 09:28:00,
2013-08-02 05:34:00,63.7,63.3,29.85,East,80,0.0,3.0,99,-99.99,,,-99.99,0.0,meteohub,2013-08-02 09:34:00,
2013-08-02 05:39:00,63.5,63.1,29.85,East,80,0.0,3.0,99,-99.99,,,-99.99,0.0,meteohub,2013-08-02 09:39:00,
2013-08-02 05:44:00,63.3,62.8,29.86,East,80,0.0,3.0,98,-99.99,,,-99.99,0.0,meteohub,2013-08-02 09:44:00,
2013-08-02 05:49:00,63.1,62.6,29.86,East,88,1.0,2.0,98,-99.99,,,-99.99,0.0,meteohub,2013-08-02 09:49:00,
2013-08-02 05:54:00,63.1,62.8,29.85,ESE,107,0.0,2.0,99,-99.99,,,-99.99,0.0,meteohub,2013-08-02 09:54:00,
2013-08-02 06:00:00,63.1,62.8,29.86,ESE,107,0.0,4.0,99,-99.99,,,-99.99,5.0,meteohub,2013-08-02 10:00:00,
2013-08-02 06:05:00,63.1,62.8,29.85,ESE,107,0.0,2.0,99,-99.99,,,-99.99,5.0,meteohub,2013-08-02 10:05:00,
2013-08-02 06:10:00,63.1,62.8,29.86,East,82,2.0,2.0,99,-99.99,,,-99.99,5.0,meteohub,2013-08-02 10:10:00,
2013-08-02 06:15:00,63.1,62.8,29.86,East,82,0.0,3.0,99,-99.99,,,-99.99,7.0,meteohub,2013-08-02 10:15:00,
2013-08-02 06:20:00,63.1,62.8,29.86,East,82,0.0,3.0,99,-99.99,,,-99.99,7.0,meteohub,2013-08-02 10:20:00,
2013-08-02 06:25:00,63.1,62.8,29.86,East,82,0.0,1.0,99,-99.99,,,-99.99,5.0,meteohub,2013-08-02 10:25:00,
2013-08-02 06:30:00,63.0,62.6,29.86,East,82,0.0,1.0,99,-99.99,,,-99.99,5.0,meteohub,2013-08-02 10:30:00,
2013-08-02 06:36:00,63.0,62.6,29.86,East,82,0.0,1.0,99,-99.99,,,-99.99,9.0,meteohub,2013-08-02 10:36:00,
2013-08-02 06:41:00,63.0,62.6,29.86,East,82,0.0,1.0,99,-99.99,,,-99.99,11.0,meteohub,2013-08-02 10:41:00,
2013-08-02 06:46:00,63.0,62.6,29.86,East,82,0.0,1.0,99,-99.99,,,-99.99,9.0,meteohub,2013-08-02 10:46:00,
2013-08-02 06:51:00,63.0,62.6,29.86,East,82,0.0,1.0,99,-99.99,,,-99.99,11.0,meteohub,2013-08-02 10:51:00,
2013-08-02 06:56:00,62.8,62.4,29.86,East,82,0.0,1.0,99,-99.99,,,-99.99,9.0,meteohub,2013-08-02 10:56:00,
2013-08-02 07:01:00,62.8,62.4,29.86,East,82,1.0,1.0,99,-99.99,,,-99.99,11.0,meteohub,2013-08-02 11:01:00,
2013-08-02 07:06:00,62.8,62.4,29.86,East,82,0.0,1.0,99,-99.99,,,-99.99,9.0,meteohub,2013-08-02 11:06:00,
2013-08-02 07:11:00,62.8,62.4,29.86,East,82,0.0,1.0,99,-99.99,,,-99.99,12.0,meteohub,2013-08-02 11:11:00,
2013-08-02 07:16:00,62.8,62.4,29.85,East,82,0.0,1.0,99,-99.99,,,-99.99,21.0,meteohub,2013-08-02 11:16:00,
2013-08-02 07:21:00,62.8,62.4,29.85,East,82,0.0,0.0,99,-99.99,,,-99.99,23.0,meteohub,2013-08-02 11:21:00,
2013-08-02 07:26:00,62.8,62.4,29.85,East,82,0.0,0.0,99,-99.99,,,-99.99,26.0,meteohub,2013-08-02 11:26:00,
2013-08-02 07:31:00,63.0,62.6,29.86,East,82,0.0,0.0,99,-99.99,,,-99.99,19.0,meteohub,2013-08-02 11:31:00,
2013-08-02 07:36:00,63.0,62.6,29.86,East,82,0.0,0.0,99,-99.99,,,-99.99,18.0,meteohub,2013-08-02 11:36:00,
2013-08-02 07:41:00,63.0,62.6,29.86,East,82,0.0,1.0,99,-99.99,,,-99.99,12.0,meteohub,2013-08-02 11:41:00,
2013-08-02 07:46:00,63.0,62.6,29.86,East,86,0.0,1.0,99,-99.99,,,-99.99,9.0,meteohub,2013-08-02 11:46:00,
2013-08-02 07:51:00,63.0,62.6,29.86,East,86,0.0,1.0,99,-99.99,,,-99.99,12.0,meteohub,2013-08-02 11:51:00,
2013-08-02 07:56:00,62.8,62.4,29.86,East,86,0.0,1.0,99,-99.99,,,-99.99,14.0,meteohub,2013-08-02 11:56:00,
2013-08-02 08:01:00,62.8,62.4,29.86,East,88,0.0,0.0,99,-99.99,,,-99.99,18.0,meteohub,2013-08-02 12:01:00,
2013-08-02 08:06:00,62.8,62.4,29.86,East,88,0.0,1.0,99,-99.99,,,-99.99,16.0,meteohub,2013-08-02 12:06:00,
2013-08-02 08:11:00,62.8,62.4,29.86,East,88,0.0,1.0,99,-99.99,,,-99.99,16.0,meteohub,2013-08-02 12:11:00,
2013-08-02 08:16:00,62.8,62.4,29.86,East,88,0.0,0.0,99,-99.99,,,-99.99,16.0,meteohub,2013-08-02 12:16:00,
2013-08-02 08:21:00,62.8,62.4,29.86,East,88,0.0,0.0,99,-99.99,,,-99.99,9.0,meteohub,2013-08-02 12:21:00,
2013-08-02 08:27:00,62.6,62.2,29.86,East,88,0.0,0.0,99,-99.99,,,-99.99,12.0,meteohub,2013-08-02 12:27:00,
2013-08-02 08:32:00,62.4,62.1,29.86,East,88,0.0,1.0,99,-99.99,,,-99.99,28.0,meteohub,2013-08-02 12:32:00,
2013-08-02 08:37:00,62.4,62.1,29.85,East,95,2.0,2.0,99,-99.99,,,-99.99,30.0,meteohub,2013-08-02 12:37:00,
2013-08-02 08:42:00,62.4,62.1,29.85,East,85,0.0,3.0,99,-99.99,,,-99.99,58.0,meteohub,2013-08-02 12:42:00,
2013-08-02 08:47:00,62.6,62.2,29.85,East,92,0.0,3.0,99,-99.99,,,-99.99,62.0,meteohub,2013-08-02 12:47:00,
2013-08-02 08:52:00,62.8,62.4,29.85,East,94,0.0,3.0,99,-99.99,,,-99.99,37.0,meteohub,2013-08-02 12:52:00,
2013-08-02 08:57:00,63.0,62.6,29.85,East,80,0.0,2.0,99,-99.99,,,-99.99,39.0,meteohub,2013-08-02 12:57:00,
2013-08-02 09:02:00,63.1,62.8,29.85,East,87,0.0,1.0,99,-99.99,,,-99.99,33.0,meteohub,2013-08-02 13:02:00,
2013-08-02 09:07:00,63.1,63.1,29.85,ENE,78,0.0,1.0,100,-99.99,,,-99.99,28.0,meteohub,2013-08-02 13:07:00,
2013-08-02 09:12:00,63.1,63.1,29.85,ENE,76,1.0,1.0,100,-99.99,,,-99.99,26.0,meteohub,2013-08-02 13:12:00,
2013-08-02 09:18:00,63.1,63.1,29.85,ENE,76,0.0,2.0,100,-99.99,,,-99.99,23.0,meteohub,2013-08-02 13:18:00,
2013-08-02 09:23:00,63.1,63.1,29.84,ENE,76,0.0,2.0,100,-99.99,,,-99.99,23.0,meteohub,2013-08-02 13:23:00,
2013-08-02 09:28:00,63.1,63.1,29.84,ENE,63,0.0,2.0,100,-99.99,,,-99.99,67.0,meteohub,2013-08-02 13:28:00,
2013-08-02 09:33:00,63.3,63.0,29.84,East,79,0.0,3.0,99,-99.99,,,-99.99,123.0,meteohub,2013-08-02 13:33:00,
2013-08-02 09:38:00,63.5,63.5,29.84,East,88,0.0,3.0,100,-99.99,,,-99.99,102.0,meteohub,2013-08-02 13:38:00,
2013-08-02 09:43:00,63.7,63.7,29.84,East,86,0.0,3.0,100,-99.99,,,-99.99,121.0,meteohub,2013-08-02 13:43:00,
2013-08-02 09:48:00,64.0,64.0,29.84,East,98,2.0,3.0,100,-99.99,,,-99.99,102.0,meteohub,2013-08-02 13:48:00,
2013-08-02 09:53:00,64.0,64.0,29.84,East,88,0.0,3.0,100,-99.99,,,-99.99,74.0,meteohub,2013-08-02 13:53:00,
2013-08-02 09:58:00,63.9,63.9,29.83,ENE,64,0.0,3.0,100,-99.99,,,-99.99,53.0,meteohub,2013-08-02 13:58:00,
2013-08-02 10:03:00,63.9,63.9,29.83,SW,221,0.0,2.0,100,-99.99,,,-99.99,67.0,meteohub,2013-08-02 14:03:00,
2013-08-02 10:08:00,63.9,63.9,29.83,East,94,0.0,3.0,100,-99.99,,,-99.99,90.0,meteohub,2013-08-02 14:08:00,
2013-08-02 10:14:00,64.0,63.7,29.83,East,90,0.0,3.0,99,-99.99,,,-99.99,90.0,meteohub,2013-08-02 14:14:00,
2013-08-02 10:19:00,64.0,63.7,29.82,East,97,0.0,2.0,99,-99.99,,,-99.99,97.0,meteohub,2013-08-02 14:19:00,
2013-08-02 10:24:00,64.0,63.7,29.83,East,99,1.0,2.0,99,-99.99,,,-99.99,56.0,meteohub,2013-08-02 14:24:00,
2013-08-02 10:29:00,63.9,63.5,29.83,East,100,0.0,2.0,99,-99.99,,,-99.99,70.0,meteohub,2013-08-02 14:29:00,
2013-08-02 10:34:00,64.0,63.7,29.83,East,100,0.0,2.0,99,-99.99,,,-99.99,88.0,meteohub,2013-08-02 14:34:00,
2013-08-02 10:39:00,64.0,63.7,29.83,ESE,103,0.0,2.0,99,-99.99,,,-99.99,30.0,meteohub,2013-08-02 14:39:00,
2013-08-02 10:44:00,63.9,63.5,29.83,ESE,103,0.0,2.0,99,-99.99,,,-99.99,26.0,meteohub,2013-08-02 14:44:00,
2013-08-02 10:49:00,63.9,63.5,29.83,East,94,0.0,2.0,99,-99.99,,,-99.99,25.0,meteohub,2013-08-02 14:49:00,
2013-08-02 10:55:00,63.9,63.5,29.83,East,94,0.0,2.0,99,-99.99,,,-99.99,25.0,meteohub,2013-08-02 14:55:00,
2013-08-02 11:00:00,63.9,63.5,29.82,East,94,0.0,2.0,99,-99.99,,,-99.99,25.0,meteohub,2013-08-02 15:00:00,
2013-08-02 11:05:00,63.9,63.5,29.82,East,94,0.0,2.0,99,-99.99,,,-99.99,25.0,meteohub,2013-08-02 15:05:00,
2013-08-02 11:10:00,64.0,64.0,29.83,North,-999,-999.0,0.0,100,-99.99,,,-99.99,35.0,meteohub,2013-08-02 15:10:00,
2013-08-02 11:15:00,64.0,63.7,29.83,East,87,0.0,0.0,99,-99.99,,,-99.99,40.0,meteohub,2013-08-02 15:15:00,
2013-08-02 11:20:00,64.0,63.7,29.83,East,87,0.0,1.0,99,-99.99,,,-99.99,39.0,meteohub,2013-08-02 15:20:00,
2013-08-02 11:25:00,64.0,63.7,29.82,East,87,1.0,1.0,99,-99.99,,,-99.99,39.0,meteohub,2013-08-02 15:25:00,
2013-08-02 11:30:00,64.2,64.2,29.82,WSW,241,0.0,2.0,100,-99.99,,,-99.99,121.0,meteohub,2013-08-02 15:30:00,
2013-08-02 11:35:00,64.2,64.2,29.82,ESE,117,0.0,2.0,100,-99.99,,,-99.99,79.0,meteohub,2013-08-02 15:35:00,
2013-08-02 11:40:00,64.2,64.2,29.82,ESE,117,0.0,2.0,100,-99.99,,,-99.99,93.0,meteohub,2013-08-02 15:40:00,
2013-08-02 11:45:00,64.4,64.4,29.82,ESE,117,0.0,1.0,100,-99.99,,,-99.99,146.0,meteohub,2013-08-02 15:45:00,
2013-08-02 11:50:00,64.8,64.8,29.81,ESE,109,1.0,2.0,100,-99.99,,,-99.99,156.0,meteohub,2013-08-02 15:50:00,
2013-08-02 11:55:00,64.9,64.9,29.82,ESE,116,0.0,2.0,100,-99.99,,,-99.99,216.0,meteohub,2013-08-02 15:55:00,
2013-08-02 12:00:00,65.3,65.3,29.82,ENE,77,0.0,2.0,100,-99.99,,,-99.99,216.0,meteohub,2013-08-02 16:00:00,
2013-08-02 12:05:00,65.3,65.3,29.82,East,86,0.0,2.0,100,-99.99,,,-99.99,116.0,meteohub,2013-08-02 16:05:00,
2013-08-02 12:10:00,65.1,65.1,29.82,East,86,0.0,2.0,100,-99.99,,,-99.99,81.0,meteohub,2013-08-02 16:10:00,
2013-08-02 12:15:00,65.1,65.1,29.82,East,86,0.0,1.0,100,-99.99,,,-99.99,51.0,meteohub,2013-08-02 16:15:00,
2013-08-02 12:21:00,64.9,64.6,29.82,East,86,0.0,1.0,99,-99.99,,,-99.99,58.0,meteohub,2013-08-02 16:21:00,
2013-08-02 12:26:00,64.8,64.4,29.82,East,86,0.0,1.0,99,-99.99,,,-99.99,56.0,meteohub,2013-08-02 16:26:00,
2013-08-02 12:31:00,64.8,64.4,29.82,SW,215,0.0,1.0,99,-99.99,,,-99.99,67.0,meteohub,2013-08-02 16:31:00,
2013-08-02 12:36:00,64.8,64.4,29.81,SW,215,0.0,2.0,99,-99.99,,,-99.99,86.0,meteohub,2013-08-02 16:36:00,
2013-08-02 12:41:00,64.9,64.6,29.81,South,173,0.0,2.0,99,-99.99,,,-99.99,86.0,meteohub,2013-08-02 16:41:00,
2013-08-02 12:46:00,64.9,64.9,29.81,South,173,0.0,2.0,100,-99.99,,,-99.99,53.0,meteohub,2013-08-02 16:46:00,
2013-08-02 12:51:00,64.9,64.9,29.81,North,0,0.0,1.0,100,-99.99,,,-99.99,84.0,meteohub,2013-08-02 16:51:00,
2013-08-02 12:57:00,65.1,65.1,29.81,North,0,0.0,1.0,100,-99.99,,,-99.99,67.0,meteohub,2013-08-02 16:57:00,
2013-08-02 13:02:00,65.1,65.1,29.81,North,0,0.0,1.0,100,-99.99,,,-99.99,102.0,meteohub,2013-08-02 17:02:00,
2013-08-02 13:07:00,65.1,65.1,29.81,East,92,0.0,1.0,100,-99.99,,,-99.99,69.0,meteohub,2013-08-02 17:07:00,
2013-08-02 13:12:00,65.1,64.8,29.81,East,85,0.0,1.0,99,-99.99,,,-99.99,95.0,meteohub,2013-08-02 17:12:00,
2013-08-02 13:17:00,65.1,64.8,29.81,NNE,22,0.0,2.0,99,-99.99,,,-99.99,88.0,meteohub,2013-08-02 17:17:00,
2013-08-02 13:22:00,65.1,64.8,29.81,NNE,22,0.0,2.0,99,-99.99,,,-99.99,97.0,meteohub,2013-08-02 17:22:00,
2013-08-02 13:27:00,65.1,64.8,29.81,NNE,22,0.0,2.0,99,-99.99,,,-99.99,72.0,meteohub,2013-08-02 17:27:00,
2013-08-02 13:32:00,65.1,64.8,29.81,NNE,23,1.0,1.0,99,-99.99,,,-99.99,70.0,meteohub,2013-08-02 17:32:00,
2013-08-02 13:37:00,65.1,64.8,29.81,ENE,74,0.0,1.0,99,-99.99,,,-99.99,123.0,meteohub,2013-08-02 17:37:00,
2013-08-02 13:42:00,65.1,64.8,29.81,ENE,74,0.0,1.0,99,-99.99,,,-99.99,97.0,meteohub,2013-08-02 17:42:00,
2013-08-02 13:47:00,65.3,64.9,29.81,ENE,68,0.0,1.0,99,-99.99,,,-99.99,102.0,meteohub,2013-08-02 17:47:00,
2013-08-02 13:52:00,65.3,64.9,29.81,ENE,73,0.0,1.0,99,-99.99,,,-99.99,70.0,meteohub,2013-08-02 17:52:00,
2013-08-02 13:58:00,65.1,64.8,29.81,East,86,0.0,1.0,99,-99.99,,,-99.99,19.0,meteohub,2013-08-02 17:58:00,
2013-08-02 14:03:00,64.9,64.6,29.81,East,94,0.0,1.0,99,-99.99,,,-99.99,32.0,meteohub,2013-08-02 18:03:00,
2013-08-02 14:08:00,64.8,64.4,29.81,East,91,0.0,2.0,99,-99.99,,,-99.99,14.0,meteohub,2013-08-02 18:08:00,
2013-08-02 14:13:00,64.8,64.4,29.81,East,91,0.0,2.0,99,-99.99,,,-99.99,18.0,meteohub,2013-08-02 18:13:00,
2013-08-02 14:18:00,64.6,64.2,29.81,East,91,0.0,2.0,99,-99.99,,,-99.99,37.0,meteohub,2013-08-02 18:18:00,
2013-08-02 14:23:00,64.6,64.2,29.81,East,91,0.0,1.0,99,-99.99,,,-99.99,60.0,meteohub,2013-08-02 18:23:00,
2013-08-02 14:28:00,64.8,64.4,29.81,East,95,0.0,1.0,99,-99.99,,,-99.99,76.0,meteohub,2013-08-02 18:28:00,
2013-08-02 14:33:00,64.8,64.4,29.81,East,83,0.0,3.0,99,-99.99,,,-99.99,62.0,meteohub,2013-08-02 18:33:00,
2013-08-02 14:38:00,64.8,64.4,29.81,East,92,1.0,3.0,99,-99.99,,,-99.99,37.0,meteohub,2013-08-02 18:38:00,
2013-08-02 14:43:00,64.6,64.2,29.80,East,92,0.0,3.0,99,-99.99,,,-99.99,62.0,meteohub,2013-08-02 18:43:00,
2013-08-02 14:49:00,64.8,64.4,29.81,East,92,0.0,2.0,99,-99.99,,,-99.99,63.0,meteohub,2013-08-02 18:49:00,
2013-08-02 14:54:00,64.8,64.4,29.80,East,92,0.0,2.0,99,-99.99,,,-99.99,54.0,meteohub,2013-08-02 18:54:00,
2013-08-02 14:59:00,64.9,64.6,29.81,East,96,0.0,1.0,99,-99.99,,,-99.99,79.0,meteohub,2013-08-02 18:59:00,
2013-08-02 15:04:00,64.9,64.9,29.80,East,93,0.0,1.0,100,-99.99,,,-99.99,98.0,meteohub,2013-08-02 19:04:00,
2013-08-02 15:09:00,65.1,65.1,29.80,East,93,0.0,2.0,100,-99.99,,,-99.99,56.0,meteohub,2013-08-02 19:09:00,
2013-08-02 15:14:00,65.1,65.1,29.80,East,93,0.0,2.0,100,-99.99,,,-99.99,74.0,meteohub,2013-08-02 19:14:00,
2013-08-02 15:19:00,65.1,65.1,29.80,East,93,0.0,1.0,100,-99.99,,,-99.99,79.0,meteohub,2013-08-02 19:19:00,
2013-08-02 15:24:00,65.1,65.1,29.80,East,93,0.0,1.0,100,-99.99,,,-99.99,40.0,meteohub,2013-08-02 19:24:00,
2013-08-02 15:29:00,65.1,65.1,29.79,East,93,0.0,0.0,100,-99.99,,,-99.99,132.0,meteohub,2013-08-02 19:29:00,
2013-08-02 15:34:00,65.3,65.3,29.79,East,93,0.0,1.0,100,-99.99,,,-99.99,86.0,meteohub,2013-08-02 19:34:00,
2013-08-02 15:39:00,65.5,65.5,29.79,ENE,76,0.0,1.0,100,-99.99,,,-99.99,77.0,meteohub,2013-08-02 19:39:00,
2013-08-02 15:45:00,65.5,65.1,29.79,ENE,76,0.0,1.0,99,-99.99,,,-99.99,77.0,meteohub,2013-08-02 19:45:00,
2013-08-02 15:50:00,65.5,65.5,29.79,East,84,1.0,1.0,100,-99.99,,,-99.99,91.0,meteohub,2013-08-02 19:50:00,
2013-08-02 15:55:00,65.5,65.5,29.78,East,101,0.0,1.0,100,-99.99,,,-99.99,97.0,meteohub,2013-08-02 19:55:00,
2013-08-02 16:00:00,65.7,65.7,29.78,ESE,106,0.0,2.0,100,-99.99,,,-99.99,90.0,meteohub,2013-08-02 20:00:00,
2013-08-02 16:05:00,65.7,65.7,29.78,East,84,0.0,2.0,100,-99.99,,,-99.99,95.0,meteohub,2013-08-02 20:05:00,
2013-08-02 16:10:00,65.8,65.8,29.78,East,82,0.0,2.0,100,-99.99,,,-99.99,188.0,meteohub,2013-08-02 20:10:00,
2013-08-02 16:15:00,66.4,66.4,29.78,East,82,0.0,1.0,100,-99.99,,,-99.99,274.0,meteohub,2013-08-02 20:15:00,
2013-08-02 16:20:00,66.7,66.7,29.78,East,82,0.0,0.0,100,-99.99,,,-99.99,211.0,meteohub,2013-08-02 20:20:00,
2013-08-02 16:26:00,66.9,66.9,29.78,East,80,0.0,1.0,100,-99.99,,,-99.99,188.0,meteohub,2013-08-02 20:26:00,
2013-08-02 16:31:00,66.9,66.9,29.78,East,83,1.0,1.0,100,-99.99,,,-99.99,171.0,meteohub,2013-08-02 20:31:00,
2013-08-02 16:36:00,66.6,66.2,29.78,ESE,109,0.0,2.0,99,-99.99,,,-99.99,204.0,meteohub,2013-08-02 20:36:00,
2013-08-02 16:41:00,66.6,66.2,29.78,East,99,0.0,2.0,99,-99.99,,,-99.99,197.0,meteohub,2013-08-02 20:41:00,
2013-08-02 16:46:00,66.2,65.8,29.77,ESE,102,0.0,2.0,99,-99.99,,,-99.99,95.0,meteohub,2013-08-02 20:46:00,
2013-08-02 16:51:00,66.0,65.7,29.77,ESE,102,0.0,2.0,99,-99.99,,,-99.99,58.0,meteohub,2013-08-02 20:51:00,
2013-08-02 16:56:00,65.8,65.5,29.77,ESE,102,0.0,2.0,99,-99.99,,,-99.99,56.0,meteohub,2013-08-02 20:56:00,
2013-08-02 17:01:00,65.8,65.5,29.78,ESE,103,0.0,1.0,99,-99.99,,,-99.99,70.0,meteohub,2013-08-02 21:01:00,
2013-08-02 17:07:00,65.8,65.5,29.78,East,90,0.0,1.0,99,-99.99,,,-99.99,49.0,meteohub,2013-08-02 21:07:00,
2013-08-02 17:11:00,65.7,65.3,29.78,East,90,0.0,1.0,99,-99.99,,,-99.99,47.0,meteohub,2013-08-02 21:11:00,
2013-08-02 17:17:00,65.5,65.1,29.78,East,87,1.0,1.0,99,-99.99,,,-99.99,58.0,meteohub,2013-08-02 21:17:00,
2013-08-02 17:22:00,65.5,65.1,29.77,East,87,0.0,2.0,99,-99.99,,,-99.99,81.0,meteohub,2013-08-02 21:22:00,
2013-08-02 17:27:00,65.5,65.1,29.78,SSW,194,0.0,2.0,99,-99.99,,,-99.99,63.0,meteohub,2013-08-02 21:27:00,
2013-08-02 17:32:00,65.5,65.1,29.78,East,93,1.0,2.0,99,-99.99,,,-99.99,63.0,meteohub,2013-08-02 21:32:00,
2013-08-02 17:37:00,65.1,64.8,29.78,SE,130,0.0,2.0,99,-99.99,,,-99.99,37.0,meteohub,2013-08-02 21:37:00,
2013-08-02 17:42:00,64.9,64.6,29.78,SE,130,0.0,2.0,99,-99.99,,,-99.99,35.0,meteohub,2013-08-02 21:42:00,
2013-08-02 17:47:00,64.8,64.4,29.78,East,79,0.0,1.0,99,-99.99,,,-99.99,35.0,meteohub,2013-08-02 21:47:00,
2013-08-02 17:52:00,64.6,64.2,29.79,NE,56,0.0,2.0,99,-99.99,,,-99.99,23.0,meteohub,2013-08-02 21:52:00,
2013-08-02 17:58:00,64.4,64.0,29.79,NE,55,0.0,2.0,99,-99.99,,,-99.99,25.0,meteohub,2013-08-02 21:58:00,
2013-08-02 18:03:00,64.2,63.9,29.80,NE,53,0.0,2.0,99,-99.99,,,-99.99,5.0,meteohub,2013-08-02 22:03:00,
2013-08-02 18:08:00,64.2,63.9,29.80,NE,53,0.0,1.0,99,-99.99,,,-99.99,0.0,meteohub,2013-08-02 22:08:00,
2013-08-02 18:13:00,64.0,63.7,29.80,NE,53,0.0,1.0,99,-99.99,,,-99.99,0.0,meteohub,2013-08-02 22:13:00,
2013-08-02 18:18:00,64.0,63.7,29.81,NE,53,0.0,1.0,99,-99.99,,,-99.99,0.0,meteohub,2013-08-02 22:18:00,
2013-08-02 18:23:00,64.0,63.7,29.81,NE,53,0.0,0.0,99,-99.99,,,-99.99,0.0,meteohub,2013-08-02 22:23:00,
2013-08-02 18:28:00,63.9,63.5,29.81,NE,53,0.0,0.0,99,-99.99,,,-99.99,5.0,meteohub,2013-08-02 22:28:00,
2013-08-02 18:33:00,64.0,63.7,29.80,NE,53,0.0,1.0,99,-99.99,,,-99.99,9.0,meteohub,2013-08-02 22:33:00,
2013-08-02 18:38:00,64.0,63.7,29.80,ENE,63,0.0,1.0,99,-99.99,,,-99.99,14.0,meteohub,2013-08-02 22:38:00,
2013-08-02 18:43:00,64.0,63.7,29.80,ESE,108,0.0,2.0,99,-99.99,,,-99.99,11.0,meteohub,2013-08-02 22:43:00,
2013-08-02 18:49:00,64.0,63.7,29.79,ESE,105,0.0,2.0,99,-99.99,,,-99.99,16.0,meteohub,2013-08-02 22:49:00,
2013-08-02 18:54:00,64.0,63.7,29.79,ESE,104,0.0,2.0,99,-99.99,,,-99.99,12.0,meteohub,2013-08-02 22:54:00,
2013-08-02 18:59:00,64.0,63.7,29.79,ESE,104,0.0,2.0,99,-99.99,,,-99.99,12.0,meteohub,2013-08-02 22:59:00,
2013-08-02 19:04:00,64.0,64.0,29.78,ESE,104,0.0,1.0,100,-99.99,,,-99.99,11.0,meteohub,2013-08-02 23:04:00,
2013-08-02 19:09:00,64.2,64.2,29.79,ESE,104,0.0,1.0,100,-99.99,,,-99.99,7.0,meteohub,2013-08-02 23:09:00,
2013-08-02 19:14:00,64.4,64.4,29.79,ESE,104,1.0,1.0,100,-99.99,,,-99.99,7.0,meteohub,2013-08-02 23:14:00,
2013-08-02 19:19:00,64.6,64.6,29.78,ESE,104,0.0,1.0,100,-99.99,,,-99.99,9.0,meteohub,2013-08-02 23:19:00,
2013-08-02 19:24:00,64.6,64.6,29.78,ESE,104,0.0,1.0,100,-99.99,,,-99.99,9.0,meteohub,2013-08-02 23:24:00,
2013-08-02 19:30:00,64.6,64.6,29.78,ESE,104,0.0,1.0,100,-99.99,,,-99.99,9.0,meteohub,2013-08-02 23:30:00,
2013-08-02 19:35:00,64.6,64.6,29.78,ESE,104,0.0,1.0,100,-99.99,,,-99.99,7.0,meteohub,2013-08-02 23:35:00,
2013-08-02 19:40:00,64.6,64.6,29.78,ESE,104,0.0,1.0,100,-99.99,,,-99.99,7.0,meteohub,2013-08-02 23:40:00,
2013-08-02 19:45:00,64.6,64.6,29.78,ESE,104,0.0,0.0,100,-99.99,,,-99.99,0.0,meteohub,2013-08-02 23:45:00,
2013-08-02 19:50:00,64.6,64.6,29.78,ESE,104,0.0,0.0,100,-99.99,,,-99.99,0.0,meteohub,2013-08-02 23:50:00,
2013-08-02 19:55:00,64.4,64.4,29.78,ESE,104,0.0,0.0,100,-99.99,,,-99.99,0.0,meteohub,2013-08-02 23:55:00,
2013-08-02 20:00:00,64.2,64.2,29.78,ESE,111,0.0,0.0,100,-99.99,,,-99.99,0.0,meteohub,2013-08-03 00:00:00,
2013-08-02 20:05:00,64.0,63.7,29.79,ESE,109,0.0,0.0,99,-99.99,,,-99.99,0.0,meteohub,2013-08-03 00:05:00,
2013-08-02 20:10:00,63.9,63.5,29.79,ESE,109,0.0,0.0,99,-99.99,,,-99.99,0.0,meteohub,2013-08-03 00:10:00,
2013-08-02 20:16:00,63.9,63.9,29.79,ESE,109,0.0,0.0,100,-99.99,,,-99.99,0.0,meteohub,2013-08-03 00:16:00,
2013-08-02 20:21:00,63.9,63.9,29.80,ESE,109,0.0,0.0,100,-99.99,,,-99.99,0.0,meteohub,2013-08-03 00:21:00,
2013-08-02 20:26:00,63.7,63.7,29.80,ESE,109,0.0,0.0,100,-99.99,,,-99.99,0.0,meteohub,2013-08-03 00:26:00,
2013-08-02 20:31:00,63.7,63.3,29.81,ESE,109,0.0,0.0,99,-99.99,,,-99.99,0.0,meteohub,2013-08-03 00:31:00,
2013-08-02 20:36:00,63.3,63.0,29.81,ESE,109,0.0,0.0,99,-99.99,,,-99.99,0.0,meteohub,2013-08-03 00:36:00,
2013-08-02 20:41:00,63.1,62.8,29.81,ESE,109,0.0,0.0,99,-99.99,,,-99.99,0.0,meteohub,2013-08-03 00:41:00,
2013-08-02 20:46:00,63.0,62.6,29.81,ESE,109,0.0,1.0,99,-99.99,,,-99.99,0.0,meteohub,2013-08-03 00:46:00,
2013-08-02 20:51:00,63.0,62.6,29.82,East,93,1.0,1.0,99,-99.99,,,-99.99,0.0,meteohub,2013-08-03 00:51:00,
2013-08-02 20:56:00,63.0,62.6,29.82,East,93,0.0,1.0,99,-99.99,,,-99.99,0.0,meteohub,2013-08-03 00:56:00,
2013-08-02 21:02:00,62.8,62.4,29.82,East,93,0.0,1.0,99,-99.99,,,-99.99,0.0,meteohub,2013-08-03 01:02:00,
2013-08-02 21:07:00,62.8,62.8,29.82,East,93,0.0,1.0,100,-99.99,,,-99.99,0.0,meteohub,2013-08-03 01:07:00,
2013-08-02 21:12:00,62.8,62.8,29.82,East,93,0.0,1.0,100,-99.99,,,-99.99,0.0,meteohub,2013-08-03 01:12:00,
2013-08-02 21:17:00,62.8,62.8,29.82,East,88,0.0,2.0,100,-99.99,,,-99.99,0.0,meteohub,2013-08-03 01:17:00,
2013-08-02 21:22:00,62.6,62.6,29.83,East,88,0.0,2.0,100,-99.99,,,-99.99,0.0,meteohub,2013-08-03 01:22:00,
2013-08-02 21:27:00,62.4,62.4,29.82,East,88,0.0,2.0,100,-99.99,,,-99.99,0.0,meteohub,2013-08-03 01:27:00,
2013-08-02 21:32:00,62.4,62.4,29.82,East,88,0.0,2.0,100,-99.99,,,-99.99,0.0,meteohub,2013-08-03 01:32:00,
2013-08-02 21:37:00,62.4,62.4,29.82,East,99,0.0,2.0,100,-99.99,,,-99.99,0.0,meteohub,2013-08-03 01:37:00,
2013-08-02 21:42:00,62.4,62.4,29.82,East,99,0.0,2.0,100,-99.99,,,-99.99,0.0,meteohub,2013-08-03 01:42:00,
2013-08-02 21:47:00,62.4,62.4,29.82,East,99,0.0,2.0,100,-99.99,,,-99.99,0.0,meteohub,2013-08-03 01:47:00,
2013-08-02 21:52:00,62.4,62.4,29.81,East,99,0.0,1.0,100,-99.99,,,-99.99,0.0,meteohub,2013-08-03 01:52:00,
2013-08-02 21:58:00,62.4,62.4,29.82,East,100,1.0,1.0,100,-99.99,,,-99.99,0.0,meteohub,2013-08-03 01:58:00,
2013-08-02 22:02:00,62.6,62.6,29.82,East,100,0.0,2.0,100,-99.99,,,-99.99,0.0,meteohub,2013-08-03 02:02:00,
2013-08-02 22:08:00,62.6,62.6,29.81,East,100,0.0,2.0,100,-99.99,,,-99.99,0.0,meteohub,2013-08-03 02:08:00,
2013-08-02 22:13:00,62.6,62.6,29.81,East,100,0.0,2.0,100,-99.99,,,-99.99,0.0,meteohub,2013-08-03 02:13:00,
2013-08-02 22:18:00,62.8,62.8,29.81,East,100,0.0,0.0,100,-99.99,,,-99.99,0.0,meteohub,2013-08-03 02:18:00,
2013-08-02 22:23:00,62.8,62.8,29.81,East,100,0.0,0.0,100,-99.99,,,-99.99,0.0,meteohub,2013-08-03 02:23:00,
2013-08-02 22:28:00,62.8,62.8,29.81,East,100,0.0,0.0,100,-99.99,,,-99.99,0.0,meteohub,2013-08-03 02:28:00,
2013-08-02 22:33:00,62.8,62.8,29.81,East,100,0.0,0.0,100,-99.99,,,-99.99,0.0,meteohub,2013-08-03 02:33:00,
2013-08-02 22:39:00,62.8,62.8,29.81,East,100,0.0,0.0,100,-99.99,,,-99.99,0.0,meteohub,2013-08-03 02:39:00,
2013-08-02 22:44:00,62.8,62.8,29.81,East,100,0.0,0.0,100,-99.99,,,-99.99,0.0,meteohub,2013-08-03 02:44:00,
2013-08-02 22:49:00,62.8,62.8,29.81,East,100,0.0,0.0,100,-99.99,,,-99.99,0.0,meteohub,2013-08-03 02:49:00,
2013-08-02 22:54:00,62.8,62.8,29.81,East,100,0.0,0.0,100,-99.99,,,-99.99,0.0,meteohub,2013-08-03 02:54:00,
2013-08-02 22:59:00,62.8,62.8,29.81,East,100,0.0,1.0,100,-99.99,,,-99.99,0.0,meteohub,2013-08-03 02:59:00,
2013-08-02 23:04:00,62.6,62.6,29.82,East,100,0.0,1.0,100,-99.99,,,-99.99,0.0,meteohub,2013-08-03 03:04:00,
2013-08-02 23:09:00,62.6,62.6,29.82,East,100,0.0,1.0,100,-99.99,,,-99.99,0.0,meteohub,2013-08-03 03:09:00,
2013-08-02 23:14:00,62.4,62.4,29.82,East,100,0.0,0.0,100,-99.99,,,-99.99,0.0,meteohub,2013-08-03 03:14:00,
2013-08-02 23:20:00,62.4,62.4,29.82,East,100,0.0,0.0,100,-99.99,,,-99.99,0.0,meteohub,2013-08-03 03:20:00,
2013-08-02 23:25:00,62.4,62.4,29.81,East,100,0.0,0.0,100,-99.99,,,-99.99,0.0,meteohub,2013-08-03 03:25:00,
2013-08-02 23:30:00,62.4,62.4,29.81,East,100,0.0,1.0,100,-99.99,,,-99.99,0.0,meteohub,2013-08-03 03:30:00,
2013-08-02 23:35:00,62.2,62.2,29.81,East,100,0.0,1.0,100,-99.99,,,-99.99,0.0,meteohub,2013-08-03 03:35:00,
2013-08-02 23:40:00,62.2,62.2,29.82,East,100,0.0,1.0,100,-99.99,,,-99.99,0.0,meteohub,2013-08-03 03:40:00,
2013-08-02 23:45:00,62.2,62.2,29.82,East,100,0.0,1.0,100,-99.99,,,-99.99,0.0,meteohub,2013-08-03 03:45:00,
2013-08-02 23:50:00,62.2,62.2,29.82,East,100,0.0,0.0,100,-99.99,,,-99.99,0.0,meteohub,2013-08-03 03:50:00,
2013-08-02 23:55:00,62.2,62.2,29.82,East,100,0.0,0.0,100,-99.99,,,-99.99,0.0,meteohub,2013-08-03 03:55:00,